Location: Almena Post Office
(39.8928°N, 99.7066°W)
Time: 14:54:46
(UTC+00:00)

Cosmos 1782 - Pass Details

Date: 27 February 2020
Orbit: 535 x 554 km, 82.5° (Epoch: 04 April)

Event Time Altitude Azimuth Distance (km) Brightness Sun altitude
Rises 12:30:30 0° 181° (S) 2,716 6.4 -9.4°
Reaches altitude 10° 12:32:40 10° 179° (S) 1,827 5.5 -9.0°
Maximum altitude 12:36:40 70° 96° (E) 591 3.2 -8.2°
Drops below altitude 10° 12:40:42 10° 12° (NNE) 1,841 5.6 -7.5°
Sets 12:42:53 0° 10° (N) 2,738 6.5 -7.1°
